FW1310 Weather Reports


time (UTC)temp
C
wind
direction
speed
KPH
gust
KPH
rain 1hr
cm
rain 24hr
cm
rain mn
cm
humidity
%
barometer
mb
20260901140004 24 136 0.0 1.6 0.00 0.00 0.00 91 1001.3
20260901135504 24 136 0.0 1.6 0.00 0.00 0.00 91 1001.2
20260901135005 24 136 0.0 1.6 0.00 0.00 0.00 91 1001.3
20260901134506 24 136 0.0 1.6 0.00 0.00 0.00 91 1001.1
20260901134004 24 136 0.0 1.6 0.00 0.00 0.00 91 1001.0
20260901133504 24 136 0.0 1.6 0.00 0.00 0.00 91 1001.1
20260901133005 24 136 0.0 1.6 0.00 0.00 0.00 91 1001.1
20260901132505 24 136 0.0 1.6 0.00 0.00 0.00 91 1000.9
20260901132005 24 136 0.0 1.6 0.00 0.00 0.00 91 1001.1
20260901131005 24 136 0.0 1.6 0.00 0.00 0.00 91 1000.7
20260901130505 24 136 0.0 1.6 0.00 0.00 0.00 91 1000.7
20260901092004 25 155 3.2 9.7 0.00 0.00 0.00 84 999.9
20260901091504 25 254 4.8 8.0 0.00 0.00 0.00 84 1000.0
20260901091003 25 173 3.2 4.8 0.00 0.00 0.00 84 1000.1
20260901090503 25 201 3.2 8.0 0.00 0.00 0.00 83 999.9
20260901090004 26 227 3.2 8.0 0.00 0.00 0.00 83 999.9
20260901085504 26 264 4.8 8.0 0.00 0.00 0.00 83 999.9
20260901084503 26 144 1.6 4.8 0.00 0.00 0.00 83 999.7
20260901084004 26 198 3.2 8.0 0.00 0.00 0.00 82 999.8
20260901083504 26 182 4.8 8.0 0.00 0.00 0.00 82 999.7
20260901083003 26 160 3.2 4.8 0.00 0.00 0.00 82 999.7
20260901082503 26 177 3.2 4.8 0.00 0.00 0.00 82 999.6
20260901082004 26 147 3.2 4.8 0.00 0.00 0.00 81 999.7
20260901081503 26 163 3.2 8.0 0.00 0.00 0.00 81 999.7
20260901081003 26 165 4.8 8.0 0.00 0.00 0.00 81 999.9
20260901080503 26 184 3.2 8.0 0.00 0.00 0.00 80 999.8
20260901080004 26 168 3.2 8.0 0.00 0.00 0.00 80 999.7
20260901075004 26 179 4.8 11.3 0.00 0.00 0.00 79 999.9
20260901074503 26 188 8.0 9.7 0.00 0.00 0.00 79 1000.0
20260901071504 27 175 6.4 9.7 0.00 0.00 0.00 76 1000.0
20260901071003 27 183 3.2 9.7 0.00 0.00 0.00 76 999.8
20260901070504 27 157 3.2 8.0 0.00 0.00 0.00 76 999.8
20260901070003 27 177 4.8 9.7 0.00 0.00 0.00 75 999.9
20260901065504 27 205 4.8 9.7 0.00 0.00 0.00 75 999.9
20260901065004 27 196 4.8 8.0 0.00 0.00 0.00 75 1000.0
20260901064503 27 210 8.0 12.9 0.00 0.00 0.00 74 999.9
20260901064004 27 197 3.2 9.7 0.00 0.00 0.00 74 999.9
20260901063004 27 149 8.0 12.9 0.00 0.00 0.00 74 999.7
20260901062503 27 163 8.0 12.9 0.00 0.00 0.00 74 999.6
20260901062003 27 183 4.8 12.9 0.00 0.00 0.00 74 999.6
20260901061504 27 169 4.8 8.0 0.00 0.00 0.00 74 999.4
20260901061003 27 213 4.8 9.7 0.00 0.00 0.00 74 999.5
20260901060004 28 152 3.2 4.8 0.00 0.00 0.00 72 999.6
20260901055504 28 167 3.2 8.0 0.00 0.00 0.00 71 999.4
20260901055003 28 176 4.8 9.7 0.00 0.00 0.00 71 999.5
20260901054504 28 172 4.8 4.8 0.00 0.00 0.00 70 999.6
20260901054004 28 168 4.8 4.8 0.00 0.00 0.00 69 999.4
20260901053504 28 164 3.2 9.7 0.00 0.00 0.00 69 999.4
20260901053004 28 173 6.4 12.9 0.00 0.00 0.00 68 999.4
20260901052503 28 169 8.0 14.5 0.00 0.00 0.00 67 999.6
20260901052004 28 173 4.8 11.3 0.00 0.00 0.00 67 999.3
20260901051504 28 172 8.0 11.3 0.00 0.00 0.00 67 999.3
20260901051005 28 195 4.8 8.0 0.00 0.00 0.00 67 999.3
20260901050003 28 171 4.8 11.3 0.00 0.00 0.00 66 999.3
20260901045504 28 183 4.8 12.9 0.00 0.00 0.00 65 999.3
20260901045004 29 168 8.0 14.5 0.00 0.00 0.00 65 999.3
20260901044506 29 203 8.0 12.9 0.00 0.00 0.00 65 999.2
20260901044003 29 168 8.0 12.9 0.00 0.00 0.00 64 999.2
20260901043503 29 215 8.0 11.3 0.00 0.00 0.00 64 999.1
20260901043004 29 209 8.0 14.5 0.00 0.00 0.00 64 999.1
20260901042504 29 149 11.3 16.1 0.00 0.00 0.00 64 998.9
20260901042004 29 157 9.7 16.1 0.00 0.00 0.00 63 999.2
20260901041503 30 154 8.0 12.9 0.00 0.00 0.00 63 999.1
20260901041003 30 180 8.0 12.9 0.00 0.00 0.00 62 999.0
20260901040004 30 188 3.2 11.3 0.00 0.00 0.00 62 999.1
20260901035504 30 191 3.2 9.7 0.00 0.00 0.00 61 999.1
20260901035004 30 159 4.8 9.7 0.00 0.00 0.00 60 999.2
20260901034503 30 181 4.8 11.3 0.00 0.00 0.00 59 999.1
20260901034003 30 178 4.8 14.5 0.00 0.00 0.00 58 999.0
20260901033504 30 148 6.4 12.9 0.00 0.00 0.00 58 998.8
20260901033004 30 172 9.7 11.3 0.00 0.00 0.00 56 998.9
20260901032503 30 157 4.8 9.7 0.00 0.00 0.00 55 998.7
20260901032003 30 144 3.2 8.0 0.00 0.00 0.00 53 998.8
20260901030504 30 131 3.2 3.2 0.00 0.00 0.00 51 998.6
20260901030004 30 146 1.6 3.2 0.00 0.00 0.00 51 998.5
20260901025003 30 149 1.6 8.0 0.00 0.00 0.00 50 998.4
20260901024004 30 134 1.6 4.8 0.00 0.00 0.00 50 998.4
20260901023504 30 126 1.6 4.8 0.00 0.00 0.00 50 998.3
20260901023004 30 150 1.6 3.2 0.00 0.00 0.00 51 998.2
20260901022504 30 138 1.6 3.2 0.00 0.00 0.00 51 998.1
20260901022003 30 148 1.6 3.2 0.00 0.00 0.00 51 998.1
20260901021503 31 146 0.0 1.6 0.00 0.00 0.00 50 998.1
20260901021004 31 134 1.6 1.6 0.00 0.00 0.00 49 997.9
20260901020504 31 128 1.6 3.2 0.00 0.00 0.00 49 998.1
20260901020004 31 146 1.6 3.2 0.00 0.00 0.00 49 997.9
20260901015504 31 144 3.2 3.2 0.00 0.00 0.00 48 997.8
20260901015004 31 113 1.6 3.2 0.00 0.00 0.00 48 997.6
20260901014503 31 127 1.6 3.2 0.00 0.00 0.00 48 997.8
20260901014004 31 131 3.2 3.2 0.00 0.00 0.00 47 997.8
20260901013504 32 130 1.6 4.8 0.00 0.00 0.00 47 997.7
20260901013003 32 148 3.2 4.8 0.00 0.00 0.00 46 997.7
20260901012503 32 139 1.6 4.8 0.00 0.00 0.00 46 997.6
20260901012004 32 104 1.6 4.8 0.00 0.00 0.00 45 997.6
20260901011504 32 177 3.2 4.8 0.00 0.00 0.00 45 997.6
20260901011004 32 143 3.2 3.2 0.00 0.00 0.00 45 997.3
20260901010504 32 161 1.6 4.8 0.00 0.00 0.00 44 997.5
20260901010004 33 100 3.2 4.8 0.00 0.00 0.00 44 997.3
20260901005503 33 124 3.2 4.8 0.00 0.00 0.00 43 997.4
20260901005003 33 49 3.2 4.8 0.00 0.00 0.00 43 997.3
20260901004504 33 130 1.6 4.8 0.00 0.00 0.00 43 997.5
20260901004004 33 160 3.2 8.0 0.00 0.00 0.00 43 997.3
20260901003503 33 183 1.6 9.7 0.00 0.00 0.00 43 997.4
20260901003003 33 157 3.2 9.7 0.00 0.00 0.00 42 997.4
20260901002503 33 170 3.2 4.8 0.00 0.00 0.00 43 997.5
20260901002004 34 92 4.8 11.3 0.00 0.00 0.00 43 997.3
20260901001504 34 164 6.4 12.9 0.00 0.00 0.00 42 997.4
20260901001003 34 149 3.2 9.7 0.00 0.00 0.00 42 997.3
20260901000503 34 66 3.2 11.3 0.00 0.00 0.00 41 996.9
20260831235504 35 102 3.2 9.7 0.00 0.00 0.00 41 997.2
20260831235004 35 170 4.8 8.0 0.00 0.00 0.00 40 997.3
20260831233503 35 121 3.2 4.8 0.00 0.00 0.00 39 997.2
20260831233003 36 88 1.6 3.2 0.00 0.00 0.00 38 997.4
20260831232503 36 132 3.2 9.7 0.00 0.00 0.00 39 997.5
20260831232003 36 161 4.8 9.7 0.00 0.00 0.00 38 997.2
20260831231504 35 130 3.2 8.0 0.00 0.00 0.00 38 997.3
20260831230503 35 172 4.8 12.9 0.00 0.00 0.00 40 997.4
20260831230003 36 112 4.8 11.3 0.00 0.00 0.00 39 997.2
20260831225503 36 179 8.0 12.9 0.00 0.00 0.00 37 997.5
20260831225003 37 126 1.6 4.8 0.00 0.00 0.00 37 997.4
20260831224503 37 80 1.6 4.8 0.00 0.00 0.00 36 997.4
20260831224003 36 122 1.6 12.9 0.00 0.00 0.00 37 997.4
20260831223003 36 156 4.8 8.0 0.00 0.00 0.00 37 997.3
20260831222503 37 50 3.2 8.0 0.00 0.00 0.00 37 997.5
20260831222004 36 116 3.2 9.7 0.00 0.00 0.00 39 997.6
20260831221504 36 218 6.4 9.7 0.00 0.00 0.00 40 997.7
20260831221004 37 189 3.2 3.2 0.00 0.00 0.00 39 997.5
20260831220503 37 189 3.2 3.2 0.00 0.00 0.00 39 997.6
20260831220004 37 187 4.8 11.3 0.00 0.00 0.00 39 997.7
20260831215504 37 209 4.8 11.3 0.00 0.00 0.00 40 997.7
20260831215004 36 86 0.0 4.8 0.00 0.00 0.00 40 997.7
20260831214504 36 162 3.2 9.7 0.00 0.00 0.00 41 998.1
20260831213503 35 166 6.4 11.3 0.00 0.00 0.00 43 997.8
20260831213003 36 209 9.7 9.7 0.00 0.00 0.00 42 998.1
20260831212503 36 209 8.0 9.7 0.00 0.00 0.00 42 998.1
20260831212003 36 209 8.0 11.3 0.00 0.00 0.00 42 998.3
20260831211504 36 150 3.2 11.3 0.00 0.00 0.00 44 998.3
20260831211004 36 162 8.0 11.3 0.00 0.00 0.00 43 998.3
20260831210504 37 85 4.8 9.7 0.00 0.00 0.00 42 998.2
20260831210004 36 83 4.8 9.7 0.00 0.00 0.00 40 998.4
20260831205504 36 116 3.2 8.0 0.00 0.00 0.00 42 998.4
20260831204504 36 112 1.6 1.6 0.00 0.00 0.00 43 998.6
20260831203504 35 262 4.8 11.3 0.00 0.00 0.00 45 998.9
20260831203004 35 262 4.8 11.3 0.00 0.00 0.00 45 999.0
20260831202504 35 262 4.8 11.3 0.00 0.00 0.00 45 999.0
20260831202004 35 262 4.8 11.3 0.00 0.00 0.00 45 999.2
20260831201504 35 262 4.8 11.3 0.00 0.00 0.00 45 999.4
20260831201004 35 134 3.2 11.3 0.00 0.00 0.00 44 999.3
20260831200504 36 165 4.8 9.7 0.00 0.00 0.00 44 999.4
20260831200004 36 165 4.8 9.7 0.00 0.00 0.00 44 999.4
20260831195504 35 153 4.8 8.0 0.00 0.00 0.00 46 999.4
20260831195004 36 190 3.2 3.2 0.00 0.00 0.00 44 999.5
20260831194504 36 190 3.2 9.7 0.00 0.00 0.00 44 999.5
20260831194004 36 194 9.7 11.3 0.00 0.00 0.00 46 999.6
20260831193504 35 200 8.0 11.3 0.00 0.00 0.00 46 999.7
20260831193004 35 169 4.8 8.0 0.00 0.00 0.00 45 999.5
20260831192004 35 161 8.0 14.5 0.00 0.00 0.00 47 999.7
20260831191504 35 161 8.0 14.5 0.00 0.00 0.00 47 999.8
20260831190504 35 161 8.0 14.5 0.00 0.00 0.00 47 999.9
20260831190004 35 95 3.2 3.2 0.00 0.00 0.00 48 1000.1
20260831185504 35 95 3.2 3.2 0.00 0.00 0.00 48 1000.0
20260831185004 35 95 3.2 3.2 0.00 0.00 0.00 48 1000.0
20260831184504 35 95 3.2 4.8 0.00 0.00 0.00 48 1000.3
20260831183504 32 134 3.2 4.8 0.00 0.00 0.00 58 1000.3
20260831183004 32 134 3.2 4.8 0.00 0.00 0.00 58 1000.4
20260831182004 32 134 3.2 4.8 0.00 0.00 0.00 58 1000.5
20260831181004 32 134 3.2 4.8 0.00 0.00 0.00 58 1000.4
20260831180503 32 134 3.2 4.8 0.00 0.00 0.00 58 1000.5
20260831175004 32 134 3.2 4.8 0.00 0.00 0.00 58 1001.0
20260831174004 32 134 3.2 4.8 0.00 0.00 0.00 58 1000.7
20260831173504 32 134 3.2 4.8 0.00 0.00 0.00 58 1000.8
20260831173004 32 134 3.2 4.8 0.00 0.00 0.00 58 1001.0
20260831172504 32 134 3.2 4.8 0.00 0.00 0.00 58 1001.1
20260831172004 32 134 3.2 4.8 0.00 0.00 0.00 58 1001.1
20260831171504 32 134 3.2 9.7 0.00 0.00 0.00 58 1001.1
20260831171004 32 193 6.4 9.7 0.00 0.00 0.00 57 1001.3
20260831170504 33 106 4.8 8.0 0.00 0.00 0.00 74 1001.2
20260831170004 30 146 3.2 4.8 0.00 0.00 0.00 74 1001.2
20260831165504 30 146 3.2 4.8 0.00 0.00 0.00 74 1001.2
20260831165004 30 146 3.2 4.8 0.00 0.00 0.00 74 1001.2
20260831164504 30 146 3.2 4.8 0.00 0.00 0.00 74 1001.3
20260831164004 30 146 3.2 4.8 0.00 0.00 0.00 74 1001.3
20260831163504 30 146 3.2 4.8 0.00 0.00 0.00 74 1001.5
20260831162504 30 146 3.2 4.8 0.00 0.00 0.00 74 1001.3
20260831162004 30 146 3.2 4.8 0.00 0.00 0.00 74 1001.5
20260831161503 30 146 3.2 4.8 0.00 0.00 0.00 74 1001.3
20260831161003 30 146 3.2 4.8 0.00 0.00 0.00 74 1001.4
20260831160503 30 146 3.2 4.8 0.00 0.00 0.00 74 1001.3
20260831155004 30 146 3.2 4.8 0.00 0.00 0.00 74 1001.3
20260831154503 30 146 3.2 4.8 0.00 0.00 0.00 74 1001.3
20260831154003 30 146 3.2 4.8 0.00 0.00 0.00 74 1001.3
20260831153503 30 146 3.2 4.8 0.00 0.00 0.00 74 1001.3
20260831153003 30 146 3.2 4.8 0.00 0.00 0.00 74 1001.1
20260831152504 30 146 3.2 4.8 0.00 0.00 0.00 74 1001.3
20260831152004 30 146 3.2 4.8 0.00 0.00 0.00 74 1001.3
20260831151504 30 146 3.2 4.8 0.00 0.00 0.00 74 1001.3
20260831151004 30 146 3.2 4.8 0.00 0.00 0.00 74 1001.0
20260831150504 25 275 3.2 4.8 0.00 0.00 0.00 92 1001.1
20260831145003 25 275 3.2 4.8 0.00 0.00 0.00 92 1000.9
20260831144504 25 275 3.2 4.8 0.00 0.00 0.00 92 1000.9
20260831143503 25 275 3.2 4.8 0.00 0.00 0.00 92 1000.8
20260831143004 25 275 3.2 4.8 0.00 0.00 0.00 92 1000.8
20260831142504 25 275 3.2 4.8 0.00 0.00 0.00 92 1000.8
20260831142004 25 275 3.2 4.8 0.00 0.00 0.00 92 1000.7
20260831141503 25 275 3.2 4.8 0.00 0.00 0.00 92 1000.8
20260831141004 25 275 3.2 4.8 0.00 0.00 0.00 92 1000.7
20260831140504 25 275 3.2 4.8 0.00 0.00 0.00 92 1000.6